Volver al catálogo

THORAD AGENA D DEB

ActivoLEO
NORAD 4144·DEBRIS·🇺🇸 United States

Lanzado Sep 30, 1969 desde Vandenberg Space Force Base

Loading…

Próximos Pases (próximas 24 horas)

TLE

ActualizadoSource: Space-Track

Época: Sep 14, 2026, 17:18 UTC

1 04144U 69082N   26257.72090987  .00001479  00000-0  29754-3 0  9993
2 04144  70.0776   4.5336 0034553 356.5970   3.4931 14.63238625979609

Sigue THORAD AGENA D DEB en tiempo real con AllMySat

Download on the App Store